Japanese version Home page |
Updated on December 8, 2013 |
|
Orbital ElementsEpoch 2012 Dec. 19.0 TT = JDT 2456280.5 T 2012 Dec. 6.34581 TT MPC q 2.1541560 (2000.0) P Q z -0.0000199 Peri. 293.91237 +0.12440218 +0.02329908 +/-0.0000112 Node 274.11303 -0.00300237 -0.99971086 e 1.0000430 Incl. 96.00121 -0.99222733 +0.00594618 From 110 observations 2013 Apr. 8-Aug. 25, mean residual 0".5.
|
Finding Charts
|
Magnitudes Graphm1 = 11.0 + 5 log d + 10.0 log r
|
The orbital elements are published on M.P.E.C. 2013-R59.
|